Tracking 29777 objects as of 4-Oct-2024
HD Live streaming from Space Station
objects crossing your sky now

METEOR 2-17 DEB

Track METEOR 2-17 DEB now!
10-day predictions


NORAD ID: 38281
Int'l Code: 1988-005AJ
Perigee: 888.9 km
Apogee: 908.7 km
Inclination: 82.5 °
Period: 102.8 minutes
Semi major axis: 7269 km
RCS: 0.0059 m2 (small)
Launch date: January 30, 1988
Source: Commonwealth of Independent States (former USSR) (CIS)
Launch site: PLESETSK MISSILE AND SPACE COMPLEX (PKMTR)

Note: This is SATELLITE DEBRIS
Your satellite tracking list
Your tracking list is empty




NASA's NSSDC Master Catalog

Two Line Element Set (TLE):
1 38281U 88005AJ  24275.10419421  .00010785  00000-0  72325-2 0  9997
2 38281  82.5358  54.0990 0013575 236.0975 123.8904 14.00615429503978
Source of the keplerian elements: AFSPC